RADUGA-1 4 [-]

Last updated on Nov. 12, 2019, 4:19 a.m. UTC

1 25642U 99010A   19315.18573146  .00000129  00000-0  00000+0 0  9993
2 25642  14.7681  22.3033 0004634 270.4943 225.4167  1.00231320 75806
UTC
Height (km)
Latitude
Longitude
Inclination
Orbital Period
UTC large
Height (km)
Speed (km/s)
/
Latitude / Longitude
Inclination (degrees)
Orbital Period (minutes)
Azimuth
Elevation
Range (km)
Doppler Factor
iOS Compass Heading
iOS Angle

Next 30 passes for location: Hong Kong

Rise time Rise Azimuth (degrees) Set time Set Azimuth (degrees) Duration Max altitude (degrees)

No matching passes for this satellites